COSMOS 1528

Satellite information

Favourite Embed

Satellite Type and Status

PAYLOADIN ORBIT

Key statistics

Satellite COSMOS 1528 at a glance.

Uptime

15278

Days in orbit

Revolutions

≈ 12.5

Per day

Orbit

LEO

Low Earth Orbit

Inclination

74.0

Latest

Satellite identification and parameters

Extended collection of information and parameters for COSMOS 1528.

Object identification

Identified? True

Debris? False

Object name: COSMOS 1528

International designator: 1984-001G

Object number (NORAD): 14617

Object ID (CCSDS): 14617

Country: COMMONWEALTH OF INDEPENDENT STATES (CIS)

Current information (Y/N): Y

RCS size: MEDIUM

Orbital parameters

Period: 115.289 minutes

Inclination: 74.0062 deg

SMA: 7846.675 km

Apoapsis: 1475.95 km

Periapsis: 1461.129 km

RAAN: 288.4921 deg

Eccentricy: 0.0009444

Argument of periapsis: 45.3995 deg

Mean anomaly: 73.0543 deg

Mean motion: 12.49034117 rev/day

Mean motion (dot): 0.00000002 rev/day2

B* drag term: 0.00011807 1/REarth

Two-line elements (TLE)

Creation date: Nov. 2, 2025, 3:46 p.m.

Reference frame: TEME

Reference center: EARTH

Epoch: Nov. 2, 2025, 9:20 a.m. UTC

TLE line 0: 0 COSMOS 1528

TLE line 1: 1 14617U 84001G 25306.38921926 .00000002 00000-0 11807-3 0 9990

TLE line 2: 2 14617 74.0062 288.4921 0009444 45.3995 73.0543 12.49034117907101

Live tracking on map

Real-time ground track for satellite COSMOS 1528.

In-orbit conjunctions

There are no conjunctions computed for COSMOS 1528, at the moment. Check back to stay up to date, as we update our databases every day.

Go to all conjunctions

Associated space launch

Military communications satellites

COSMOS 1528 was lifted into orbit during the mission ‘Kosmos-3M | Strela-1M 273-280’, on board a Kosmos-3M space rocket.

The launch took place on Jan. 5, 1984, 8:09 p.m. from 132/2.

For more information about the launch, click the button.

Launch to space Kosmos-3M | Strela-1M 273-280
Kosmos-3M | Strela-1M 273-280

Agency: N/A

Status: Launch Successful

Launch date: Jan. 5, 1984, 8:09 p.m. UTC

Rocket: Kosmos-3M

Launch pad: 132/2

Location: Plesetsk Cosmodrome, Russian Federation

...

Latest news about this satellite

There are no fresh news available about this satellite. Check back as we update our databases every day.


Newsletter sign-up

Weekly statistics, charts and insights to help you stay on top of the space industry.